[[{"header":{"parameterUnit":"m.s-1","parameterCategory":1,"la1":30.2991,"la2":30.254,"lo1":-89.0895,"lo2":-89.0444,"dy":0.0017,"dx":0.0017,"nx":28,"ny":28,"refTime":"2025-03-29T03:00:00:Z","depth":0,"parameterNumber":2,"parameterNumberName":"U-component_of_WINDS"},"data":[0,0,0,0,0,0,0,0,0,0,0,0,0,0,0,0,0,0,0,0,0,0,0,0,0,0,0,0,0,0,0,0,0,0,0,0,0,0,0,0,0,0,0,0,0,0,0,0,0,0,0,0,0,0,0,0,0,0,-6.2789,-6.2791,0,-6.2991,-6.2993,-6.2995,-6.3028,-6.3026,-6.3024,-6.3023,-6.3228,-6.3235,-6.3242,0,0,0,0,0,0,0,0,0,0,0,0,0,-6.2432,-6.2439,-6.2789,-6.2791,-6.2794,-6.299,-6.2993,-6.2996,-6.3028,-6.3026,-6.3024,-6.3022,-6.3225,-6.3234,-6.3242,0,0,0,0,0,0,0,0,0,0,0,0,0,-6.2606,-6.2441,-6.2788,-6.2834,-6.284,-6.299,-6.2993,-6.2996,-6.3028,-6.3026,-6.3023,-6.3021,-6.3223,-6.3233,-6.3243,-6.3362,0,0,-6.3276,-6.3281,0,0,0,0,0,0,0,0,-6.2596,-6.2619,-6.2824,-6.2831,-6.2838,-6.2981,-6.2942,-6.3119,-6.3029,-6.2957,-6.3022,-6.3019,-6.3148,-6.3164,-6.3208,-6.3371,-6.338,-6.3277,-6.3283,-6.3288,-6.3291,0,0,0,0,0,0,0,-6.2584,-6.261,-6.2869,-6.2827,-6.2836,-6.2844,-6.2866,-6.2976,-6.3064,-6.2963,-6.2966,-6.2989,-6.3151,-6.3198,-6.3213,-6.3383,-6.3277,-6.3286,-6.3293,-6.3297,-6.3654,-6.3657,0,0,0,0,0,0,-6.2564,-6.26,-6.2862,-6.2875,-6.2708,-6.2853,-6.2877,-6.2938,-6.3063,-6.308,-6.2991,-6.299,-6.3181,-6.3201,-6.322,-6.3366,-6.3288,-6.3298,-6.3304,-6.3651,-6.3655,-6.3658,0,0,0,0,0,0,-6.2556,-6.2587,-6.2854,-6.2738,-6.2773,-6.2862,-6.293,-6.2943,-6.299,-6.3085,-6.3101,-6.3023,-6.3179,-6.3205,-6.3327,-6.3374,-6.3303,-6.3312,-6.3647,-6.3652,-6.3657,-6.3659,0,0,0,0,0,0,-6.2545,-6.2584,-6.2629,-6.2739,-6.2779,-6.2957,-6.2933,-6.2949,-6.3008,-6.3009,-6.3118,-6.3134,-6.3179,-6.331,-6.3337,-6.3387,-6.3321,-6.3644,-6.365,-6.3655,-6.3655,-6.3663,-6.367,0,0,0,0,0,-6.2533,-6.2622,-6.2631,-6.2663,-6.2838,-6.2959,-6.2982,-6.3032,-6.3012,-6.3058,-6.312,-6.3131,-6.3365,-6.3323,-6.3353,-6.3407,-6.3641,-6.3648,-6.3655,-6.3652,-6.3662,-6.367,0,0,0,0,0,0,-6.2514,-6.2637,-6.2649,-6.2776,-6.2857,-6.2964,-6.3024,-6.3042,-6.313,-6.3126,-6.3185,-6.321,-6.3327,-6.338,-6.333,-6.3528,-6.3501,-6.3515,-6.3489,-6.3499,-6.3506,-6.349,-6.3329,0,0,0,0,0,-6.2525,-6.2614,-6.2716,-6.2819,-6.2859,-6.2935,-6.299,-6.3022,-6.3108,-6.3142,-6.3212,-6.3295,-6.3387,-6.3447,-6.3537,-6.3665,-6.3688,-6.3717,-6.3724,-6.373,-6.374,-6.381,-6.3824,-6.3681,-6.3681,-6.3681,0,0,-6.2548,-6.2626,-6.2678,-6.2817,-6.2883,-6.2973,-6.2963,-6.3059,-6.3126,-6.3156,-6.3274,-6.3329,-6.3426,-6.355,-6.3609,-6.3598,-6.3785,-6.3739,-6.3743,-6.375,-6.3819,-6.3832,-6.3844,-6.3686,-6.3685,-6.3684,0,0,-6.2636,-6.2705,-6.2797,-6.2864,-6.2965,-6.3016,-6.3038,-6.3144,-6.3181,-6.3301,-6.3326,-6.3407,-6.3565,-6.3633,-6.3688,-6.3804,-6.3816,-6.3832,-6.387,-6.3938,-6.3949,-6.396,-6.3999,-6.4013,-6.3842,-6.3842,-6.3842,0,-6.2651,-6.2788,-6.2842,-6.2937,-6.2997,-6.303,-6.3124,-6.3187,-6.3312,-6.3353,-6.334,-6.3539,-6.3607,-6.3747,-6.3775,-6.382,-6.3846,-6.3818,-6.3944,-6.3954,-6.3965,-6.4003,-6.4018,-6.3843,-6.3843,-6.3843,-6.3843,0,-6.2801,-6.2896,-6.2958,-6.3079,-6.3147,-6.324,-6.3309,-6.3371,-6.3399,-6.345,-6.3572,-6.3655,-6.3763,-6.3799,-6.3827,-6.3944,-6.3934,-6.3932,-6.3905,-6.3978,-6.4015,-6.403,-6.3845,-6.3844,-6.3844,-6.3844,0,0,-6.2879,-6.303,-6.3052,-6.3107,-6.3222,-6.3296,-6.3393,-6.3498,-6.355,-6.3636,-6.3717,-6.3852,-6.3851,-6.3913,-6.3949,-6.4009,-6.4094,-6.4,-6.4003,-6.4012,-6.4227,-6.4225,-6.4242,-6.4105,-6.4108,-6.411,-6.4218,0,-6.2978,-6.3149,-6.3202,-6.3346,-6.3433,-6.3468,-6.3552,-6.3631,-6.3683,-6.3765,-6.3823,-6.3916,-6.3909,-6.3947,-6.4008,-6.407,-6.4137,-6.4064,-6.4179,-6.4183,-6.4151,-6.4261,-6.426,-6.4357,-6.4233,-6.4235,-6.4237,0,-6.3115,-6.3204,-6.3356,-6.3461,-6.35,-6.3574,-6.3675,-6.3754,-6.3845,-6.3879,-6.395,-6.3981,-6.4083,-6.4054,-6.4194,-6.4143,-6.4194,-6.4232,-6.4238,-6.4247,-6.4212,-6.4271,-6.439,-6.4403,-6.4261,-6.4259,-6.4257,0,-6.3154,-6.3312,-6.3423,-6.347,-6.3595,-6.3646,-6.3701,-6.379,-6.3851,-6.394,-6.398,-6.408,-6.4134,-6.4211,-6.4268,-6.4242,-6.4404,-6.4379,-6.4433,-6.4431,-6.4462,-6.4459,-6.4587,-6.45,-6.45,-6.45,-6.45,0,-6.3257,-6.3348,-6.3442,-6.351,-6.3614,-6.3675,-6.3775,-6.3832,-6.3912,-6.3991,-6.4029,-6.4103,-6.4176,-6.426,-6.4306,-6.4414,-6.4439,-6.4469,-6.4479,-6.4464,-6.4459,-6.4495,-6.4489,-6.4504,-6.4503,-6.4502,-6.4502,0,-6.3315,-6.3383,-6.3506,-6.3615,-6.3645,-6.3716,-6.381,-6.3877,-6.3932,-6.4033,-6.406,-6.4145,-6.4246,-6.4312,-6.4441,-6.4472,-6.459,-6.46,-6.4558,-6.4563,-6.4612,-6.4605,-6.4765,-6.4789,-6.4688,-6.4689,-6.469,0,-6.3375,-6.3446,-6.3563,-6.3619,-6.3674,-6.3765,-6.3827,-6.3891,-6.3954,-6.4065,-6.4119,-6.4222,-6.4308,-6.4468,-6.4541,-6.464,-6.4651,-6.4701,-6.4666,-6.4648,-6.4649,-6.4643,-6.465,-6.4705,-6.4706,-6.4706,-6.4707,0,-6.3473,-6.3503,-6.3591,-6.3691,-6.3764,-6.3846,-6.3928,-6.3973,-6.4051,-6.412,-6.4224,-6.429,-6.4423,-6.4524,-6.4631,-6.4687,-6.471,-6.4718,-6.4735,-6.4718,-6.469,-6.4704,-6.457,-6.4713,-6.4712,-6.4712,-6.4712,-6.4711,-6.3533,-6.3597,-6.3689,-6.3786,-6.3855,-6.3932,-6.4,-6.4064,-6.4152,-6.4264,-6.4297,-6.4405,-6.4496,-6.4641,-6.47,-6.4785,-6.478,-6.4805,-6.4811,-6.4815,-6.4814,-6.4679,-6.4805,-6.4805,-6.4805,-6.4805,-6.4805,0,-6.363,-6.3692,-6.3781,-6.3895,-6.3971,-6.3988,-6.408,-6.4143,-6.4237,-6.4321,-6.4405,-6.4524,-6.4624,-6.4706,-6.4809,-6.4861,-6.4874,-6.4886,-6.4881,-6.4894,-6.4815,-6.4788,-6.4874,-6.4874,-6.4874,-6.4874,-6.4874,-6.4874,-6.369,-6.3799,-6.3841,-6.3985,-6.4047,-6.4152,-6.4203,-6.4274,-6.4341,-6.4472,-6.4555,-6.4609,-6.4692,-6.4802,-6.4894,-6.4916,-6.4951,-6.496,-6.4983,-6.4907,-6.4899,-6.4892,-6.4867,-6.4968,-6.4968,-6.5055,-6.5056,-6.5056]},{"header":{"parameterUnit":"m.s-1","parameterCategory":1,"la1":30.2991,"la2":30.254,"lo1":-89.0895,"lo2":-89.0444,"dy":0.0017,"dx":0.0017,"nx":28,"ny":28,"refTime":"2025-03-29T03:00:00:Z","depth":0,"parameterNumber":3,"parameterNumberName":"V-component_of_WINDS"},"data":[0,0,0,0,0,0,0,0,0,0,0,0,0,0,0,0,0,0,0,0,0,0,0,0,0,0,0,0,0,0,0,0,0,0,0,0,0,0,0,0,0,0,0,0,0,0,0,0,0,0,0,0,0,0,0,0,0,0,4.3505,4.3505,0,4.3541,4.3541,4.3542,4.351,4.3509,4.3507,4.3506,4.354,4.3542,4.3544,0,0,0,0,0,0,0,0,0,0,0,0,0,4.3408,4.341,4.3505,4.3505,4.3506,4.3541,4.3541,4.3542,4.351,4.3509,4.3507,4.3506,4.3539,4.3541,4.3544,0,0,0,0,0,0,0,0,0,0,0,0,0,4.3447,4.341,4.3505,4.3494,4.3494,4.3541,4.3541,4.3542,4.3511,4.3509,4.3507,4.3505,4.3538,4.3541,4.3544,4.3603,0,0,4.3554,4.3555,0,0,0,0,0,0,0,0,4.3445,4.3451,4.3496,4.3495,4.3495,4.3519,4.3519,4.3562,4.3511,4.3504,4.3506,4.3504,4.3534,4.3538,4.3548,4.3604,4.3606,4.3554,4.3556,4.3558,4.3558,0,0,0,0,0,0,0,4.3442,4.3449,4.3519,4.3496,4.3496,4.3487,4.3491,4.3527,4.3529,4.3505,4.3502,4.3507,4.3534,4.3545,4.3549,4.3606,4.3554,4.3557,4.3559,4.356,4.3714,4.3716,0,0,0,0,0,0,4.3441,4.3447,4.3518,4.352,4.3465,4.3491,4.3495,4.3513,4.3529,4.353,4.3509,4.3506,4.3541,4.3545,4.355,4.3621,4.3557,4.356,4.3562,4.3711,4.3714,4.3716,0,0,0,0,0,0,4.3439,4.3448,4.3517,4.3483,4.3491,4.3495,4.3516,4.3515,4.3527,4.3532,4.3532,4.3521,4.354,4.3546,4.359,4.3621,4.3562,4.3565,4.3709,4.3712,4.3715,4.3762,0,0,0,0,0,0,4.3436,4.3447,4.3469,4.3484,4.3493,4.3557,4.3517,4.3517,4.3533,4.3529,4.3543,4.3544,4.3539,4.3586,4.3594,4.3625,4.3567,4.3706,4.371,4.3714,4.3757,4.3766,4.3774,0,0,0,0,0,4.3433,4.348,4.3471,4.3479,4.3521,4.3559,4.3564,4.3558,4.3535,4.3558,4.3562,4.3543,4.3617,4.3591,4.3599,4.3632,4.3704,4.3709,4.3714,4.3754,4.3764,4.3773,0,0,0,0,0,0,4.3467,4.3481,4.3471,4.3524,4.3541,4.3553,4.3581,4.3569,4.3591,4.3586,4.3577,4.358,4.3628,4.3634,4.3605,4.369,4.3657,4.3664,4.3684,4.3694,4.3702,4.37,4.357,0,0,0,0,0,4.3481,4.3511,4.3521,4.3567,4.3576,4.3578,4.3593,4.3588,4.3604,4.361,4.3617,4.3633,4.366,4.3677,4.3702,4.3758,4.3762,4.3785,4.3793,4.38,4.3805,4.3837,4.3848,4.3733,4.3733,4.3732,0,0,4.3509,4.3521,4.354,4.3574,4.3586,4.3618,4.3583,4.3617,4.364,4.3615,4.3658,4.3664,4.3681,4.3733,4.3756,4.3739,4.3838,4.3806,4.3811,4.3813,4.3844,4.3855,4.3864,4.3736,4.3735,4.3735,0,0,4.3577,4.3589,4.3629,4.3643,4.3662,4.3663,4.3673,4.3688,4.3692,4.3736,4.3718,4.3745,4.3791,4.3804,4.3817,4.3894,4.3878,4.3902,4.3944,4.3975,4.3984,4.3993,4.4021,4.4031,4.3908,4.3908,4.3908,0,4.3609,4.3656,4.3651,4.3687,4.3703,4.3684,4.3725,4.3738,4.3764,4.3776,4.3757,4.3816,4.3826,4.3881,4.39,4.3911,4.3922,4.39,4.3984,4.3992,4.3999,4.4026,4.4037,4.3911,4.391,4.391,4.391,0,4.3696,4.3729,4.3759,4.3787,4.3807,4.3845,4.3845,4.3866,4.3859,4.3862,4.3908,4.392,4.3948,4.396,4.3953,4.4015,4.4005,4.3985,4.3952,4.4013,4.4038,4.4048,4.3915,4.3914,4.3913,4.3912,0,0,4.3784,4.3811,4.3822,4.3836,4.3857,4.3883,4.3921,4.3949,4.3968,4.3987,4.4019,4.406,4.4043,4.4057,4.4052,4.4079,4.4141,4.4057,4.4057,4.4073,4.4212,4.4226,4.4238,4.4131,4.4133,4.4134,4.421,0,4.3854,4.3921,4.3919,4.3982,4.4013,4.3996,4.403,4.4046,4.4051,4.4078,4.4082,4.4112,4.4087,4.4096,4.4122,4.4128,4.4169,4.4122,4.4161,4.4162,4.4157,4.4251,4.4267,4.4338,4.422,4.4222,4.4223,0,4.3944,4.3969,4.4035,4.4055,4.4067,4.4097,4.4125,4.4151,4.417,4.4171,4.419,4.418,4.4219,4.4185,4.4239,4.4207,4.4223,4.4228,4.4231,4.4234,4.4196,4.4258,4.436,4.4371,4.4238,4.4237,4.4236,0,4.4003,4.4053,4.41,4.4112,4.4135,4.4157,4.4167,4.4185,4.4203,4.4227,4.4239,4.4266,4.4281,4.4303,4.4301,4.4276,4.4356,4.4322,4.4359,4.4359,4.4376,4.4375,4.4483,4.4385,4.4385,4.4385,4.4385,0,4.4081,4.4123,4.4127,4.4156,4.4203,4.42,4.4246,4.4254,4.427,4.43,4.4287,4.4315,4.4311,4.434,4.4339,4.4384,4.4391,4.4393,4.4392,4.4395,4.4394,4.4405,4.44,4.4388,4.4387,4.4387,4.4386,0,4.4155,4.4159,4.421,4.4229,4.4235,4.4268,4.4284,4.4312,4.4316,4.4355,4.4363,4.437,4.4403,4.4404,4.4441,4.4441,4.4497,4.449,4.4491,4.449,4.4527,4.4524,4.4645,4.4662,4.4553,4.4554,4.4555,0,4.4205,4.4237,4.426,4.4281,4.4293,4.4325,4.4345,4.4343,4.4364,4.439,4.4415,4.4447,4.4473,4.4527,4.4534,4.4563,4.4558,4.4599,4.4562,4.4564,4.456,4.4558,4.4562,4.4606,4.4607,4.4608,4.4609,0,4.4293,4.4295,4.4324,4.4355,4.4379,4.4403,4.4425,4.4442,4.4443,4.4467,4.4502,4.4523,4.4562,4.4595,4.4624,4.4634,4.4622,4.462,4.4631,4.4633,4.4633,4.4635,4.4511,4.4617,4.4616,4.4616,4.4615,4.4615,4.4357,4.4386,4.4408,4.4442,4.4459,4.448,4.4508,4.4517,4.4546,4.458,4.4577,4.4616,4.4636,4.4674,4.4687,4.4717,4.4703,4.4717,4.4721,4.4725,4.473,4.4628,4.4722,4.4722,4.4721,4.4721,4.4721,0,4.4446,4.446,4.4491,4.4524,4.4551,4.4539,4.4563,4.4586,4.4622,4.4642,4.4669,4.4709,4.4742,4.4753,4.4784,4.4806,4.4802,4.4815,4.4813,4.4816,4.474,4.4728,4.4818,4.4818,4.4818,4.4818,4.4818,4.4818,4.4496,4.4544,4.4549,4.4606,4.4619,4.4659,4.4674,4.4694,4.4711,4.4758,4.4785,4.4793,4.481,4.4843,4.4872,4.4874,4.4887,4.4902,4.4903,4.4831,4.4821,4.4812,4.4801,4.4905,4.4905,4.4977,4.4977,4.4978]}]]